sat.trackr.live / text

‹ back to catalog

STARLINK-30919

NORAD 58411 · 2023-180K

PAYLOAD ACTIVE UNKNOWN

§ Identity

Operator
Country
US
Launch date
2023-11-22
Launch site
AFETR
Launch vehicle
Mass (kg)
RCS (m²)

Purposes: comms

External: N2YO · Heavens-Above · Gunter

§ Orbital elements

Epoch: 2026-05-24T19:41:29.821920Z

Period
94.27 min
Inclination
43.0035°
Eccentricity
0.0001321
Mean motion
15.27577413 rev/d
Perigee alt
482.2 km
Apogee alt
484.0 km
Semi-major
6,861.2 km
B*
2.8895e-5
RAAN
342.1490°
Arg perigee
255.8324°
Mean anomaly
104.2381°
Rev number
13,917

§ Raw data

STARLINK-309191 58411U 23180K   26144.82048405  .00000533  00000+0  28895-4 0  99972 58411  43.0035 342.1490 0001321 255.8324 104.2381 15.27577413139177

JSON: /api/v1/satellites/58411 · /tle

For live sub-satellite position, see the globe view (requires WebGL).

§ Visibility from observer

Set your observer location to see the next 7 days of passes ≥ 10°. The values pass through the URL so the page stays shareable.

No JS? Fill the form by hand. The geolocation button needs JavaScript.